Hourly Data Report for December 02, 2021

KUGAARUK CLIMATE
NUNAVUT
Current Station Operator: ECCC - MSC

68°32'15.060" N
89°47'47.020" W
15.80 m
2303094
71407
NBB

Download Data

Hourly Data (December 2021)
Hourly Data Report for December 2, 2021
TIME
LST
Temp Definition
°C
Dew Point Definition
°C
Rel Hum Definition
%
Precip. Amount Definition
mm

Wind Dir Definition
10's deg

Wind Spd Definition
km/h
Visibility Definition
km
Stn Press Definition
kPa
Hmdx Definition


Wind Chill Definition


Weather Definition


00:00 -20.6 -23.0 81 0.0 28 19   99.24   -31 LegendNANA
01:00 -20.0 -22.4 81 0.0 29 18   99.24   -30 LegendNANA
02:00 -20.2 -22.7 81 0.0 28 19   99.27   -30 LegendNANA
03:00 -20.8 -23.3 80 0.0 28 20   99.29   -31 LegendNANA
04:00 -20.1 -22.7 80 0.0 28 19   99.31   -30 LegendNANA
05:00 -20.3 -22.9 80 0.0 24 12   99.33   -28 LegendNANA
06:00 -19.5 -22.0 80 0.0 27 23   99.30   -31 LegendNANA
07:00 -19.2 -21.6 81 0.0 28 15   99.33   -28 LegendNANA
08:00 -19.4 -21.9 80 0.0 28 16   99.36   -29 LegendNANA
09:00 -20.1 -22.7 79 0.0 29 21   99.38   -31 LegendNANA
10:00 -21.0 -23.8 78 0.0 28 17   99.42   -31 LegendNANA
11:00 -21.4 -24.5 76 0.0 27 17   99.45   -31 LegendNANA
12:00 -21.1 -24.2 76 0.0 28 22   99.46   -32 LegendNANA
13:00 -20.5 -23.5 77 0.0 28 20   99.49   -31 LegendNANA
14:00 -19.8 -22.7 77 0.0 29 24   99.52   -31 LegendNANA
15:00 -19.4 -22.7 75 0.0 30 26   99.55   -31 LegendNANA
16:00 -19.6 -23.0 75 0.0 29 25   99.56   -31 LegendNANA
17:00 -19.8 -23.0 76 0.0 29 25   99.59   -31 LegendNANA
18:00 -20.0 -23.4 74 0.0 29 24   99.63   -31 LegendNANA
19:00 -20.5 -23.7 76 0.0 29 24   99.64   -32 LegendNANA
20:00 -20.6 -24.0 74 0.0 29 28   99.65   -33 LegendNANA
21:00 -20.6 -24.0 74 0.0 29 29   99.66   -33 LegendNANA
22:00 -20.2 -23.6 74 0.0 29 27   99.69   -32 LegendNANA
23:00 -20.0 -23.4 74 0.0 29 26   99.72   -32 LegendNANA

Notes on Data Quality.

Legend

  • E = Estimated
  • M = Missing
  • NA = Not Available*
  • [empty] = Indicates an unobserved value
Date modified: